Location: Unspecified
(0.0000°N, 0.0000°E)
Time: 04:35:06
(UTC+00:00)

A-11 Canister half - Pass Details

Date: 16 April 2026
Orbit: 1523 x 1685 km, 47.3° (Epoch: 13 May)

Event Time Altitude Azimuth Distance (km) Brightness Sun altitude
Rises 11:01:52 0° 299° (WNW) 4,809 11.5 72.3°
Reaches altitude 10° 11:05:27 10° 289° (WNW) 3,800 11.1 73.0°
Maximum altitude 11:13:42 33° 230° (SW) 2,411 10.3 74.6°
Drops below altitude 10° 11:21:49 10° 169° (S) 3,710 11.1 76.1°
Sets 11:25:18 0° 159° (SSE) 4,681 11.5 76.6°
